Regional Weather Roundup
Issued by NWS Newport/Morehead, NC

Home | Current Version | Previous Version | Text Only | Print | Product List | Glossary On
Versions: 1 2 3 4 5 6 7 8 9 10 11 12 13 14 15 16 17 18 19 20 21 22 23 24 25 26 27 28 29 30 31 32 33 34 35 36 37 38 39 40 41 42 43 44 45 46 47 48 49 50
000
ASUS42 KMHX 280722
RWRMHX
WEATHER ROUNDUP FOR EASTERN NORTH CAROLINA
NATIONAL WEATHER SERVICE NEWPORT/MOREHEAD CITY NC
300 AM EDT MON JUL 28 2014

NOTE: "FAIR" INDICATES FEW OR NO CLOUDS BELOW 12,000 FEET
WITH NO SIGNIFICANT WEATHER AND/OR OBSTRUCTIONS TO VISIBILITY

NCZ015>017-031-032-045>047-102-103-280800-
NORTH COAST

CITY           SKY/WX    TMP DP  RH WIND       PRES   REMARKS
EDENTON        MOCLDY    81  74  78 SW9       29.71F
ELIZABETH CITY PTCLDY    80  74  81 SW14G21   29.70F
KITTY HAWK     SUNNY     80  76  87 SW7       29.70F
MANTEO         NOT AVBL

$$

NCZ045>047-081-094-103-104-280800-
CENTRAL COAST

CITY           SKY/WX    TMP DP  RH WIND       PRES   REMARKS
FRISCO         PTCLDY    81  79  94 SW15      29.77F
SWANQUARTER      N/A     82 N/A N/A SW15G22   29.71S

$$

NCZ095-097-098-100-101-280800-
SOUTHERN COAST

CITY           SKY/WX    TMP DP  RH WIND       PRES   REMARKS
BEAUFORT       PTCLDY    83  79  88 SW21G28     N/A
CEDAR ISLAND     N/A     82 N/A N/A SW8G20    29.79F
JACKSONVILLE   MOCLDY    82  75  79 SW8       29.77F
NEWPORT        NOT AVBL
PINEY ISLAND   PTSUNNY   84  80  88 SW15      29.76F
WILMINGTON     MOCLDY    84  75  74 SW13      29.79F


$$

NCZ011>013-027>030-043-044-078>080-089-090>093-098-280800-
COASTAL PLAIN

CITY           SKY/WX    TMP DP  RH WIND       PRES   REMARKS
AHOSKIE        CLOUDY    77  72  84 CALM      29.70S
CLINTON        CLOUDY    84  74  73 W8        29.78R
ELIZABETHTOWN  CLOUDY    84  72  66 W12       29.77S
GOLDSBORO      CLOUDY    81  77  89 W6        29.72F
GREENVILLE     CLOUDY    81  73  78 SW8       29.76S
HAVELOCK       MOCLDY    82  77  84 SW10      29.78F
KENANSVILLE    CLOUDY    80  72  75 CALM      29.74F
KINSTON        CLOUDY    81  73  78 SW6       29.74F
NEW BERN       MOCLDY    83  75  77 SW6       29.77F
RICHLANDS      CLOUDY    81  73  78 S9        29.74F
ROANOKE RAPIDS NOT AVBL
ROCKY MOUNT    CLOUDY    78  73  84 SW7       29.73F
WASHINGTON     MOCLDY    79  74  83 SW7       29.73F
WHITEVILLE     CLOUDY    83  73  70 SW9       29.80F

$$

AMZ130-135-150-152-154-156-158-170-250-252-270-ANZ085-086-088-633-658-670-280800-
MARINE OBSERVATIONS

STATION/POSITION TIME  TEMP    WIND        PRES    WAVE   SWELL
                       AIR SEA DIR/SP/G            HT/PER HT/PER
                 (UTC) (F)     (DEG/KT/KT) (MB)    (FT/S) (FT/S)
CHESAPEAKE LIGHT NOT AVBL
BUOY 44014       0700   80 78  200/ 17/ 21 1005.3    3/ 5   2/10
DUCK             0700   82 69  210/ 14/ 19 1005.1
2E DUCK          0600                        N/A     2/10
OREGON INLET     0700   82 82  200/ 18/ 23 1006.5
BUOY 44095       0700      78                N/A     3/ 5
20E OREGON INLET NOT AVBL
HATTERAS CG      0700   81 82  210/ 13/ 19 1008.2
DIAMOND BUOY     0700          VRB 21/ 25  1008.2    5/ 5   2/10
CAPE LOOKOUT     0700   82     220/ 16/ 21 1008.5
BEAUFORT LAB     0700   82 83  220/  9/ 15 1008.3
30 SE NEW RIVER  0700   83 81  230/ 21/ 25 1009.5    6/ 6   2/ 9
5 SE WRIGHTSVILL 0700   80 82  250/ 16/ 17   N/A
BUOY 41002       0620   81 80  240/ 17/ 21 1014.4    6/ 6   2/ 9
BUOY 41004       0700   84 83  220/ 19/ 23 1011.1    5/ 6   2/10

$$


USA.gov is the U.S. government's official web portal to all federal, state and local government web resources and services.